Location: Most
(50.5133°N, 13.6207°E)
Time: 23:58:58
(UTC+02:00)

ISS - Pass Details

Date: 04 October 2021
Orbit: 417 x 423 km, 51.6° (Epoch: 21 October)

Event Time Altitude Azimuth Distance (km) Brightness Sun altitude
Rises 19:31:19 0° 286° (WNW) 2,366 2.0 -9.5°
Reaches altitude 10° 19:33:33 10° 276° (W) 1,500 0.7 -9.8°
Maximum altitude 19:36:34 31° 212° (SSW) 763 -2.2 -10.3°
Drops below altitude 10° 19:39:34 10° 148° (SSE) 1,494 -1.3 -10.8°
Enters shadow 19:40:07 - 145° (SE) 1,700 -1.1 -10.9°
